| time (UTC) | temp F | wind direction | speed knots | gust knots | rain 1hr in | rain 24hr in | rain mn in | humidity % | barometer mb |
| 20260502123008 | 37 | 16 | 0.0 | 0.0 | 0.00 | 0.00 | 0.00 | 83 | 1022.0 |
| 20260502121507 | 36 | 16 | 0.0 | 0.0 | 0.00 | 0.00 | 0.00 | 84 | 1021.8 |
| 20260502114504 | 34 | 15 | 0.0 | 0.0 | 0.00 | 0.00 | 0.00 | 84 | 1021.5 |
| 20260502113002 | 34 | 15 | 0.0 | 0.0 | 0.00 | 0.00 | 0.00 | 84 | 1021.4 |
| 20260502111600 | 34 | 15 | 0.0 | 0.0 | 0.00 | 0.00 | 0.00 | 83 | 1021.2 |
| 20260502110059 | 34 | 15 | 0.0 | 0.0 | 0.00 | 0.00 | 0.00 | 83 | 1021.3 |
| 20260502104556 | 35 | 15 | 0.0 | 0.0 | 0.00 | 0.00 | 0.00 | 82 | 1021.2 |
| 20260502103055 | 35 | 15 | 0.0 | 0.0 | 0.00 | 0.00 | 0.00 | 82 | 1021.1 |
| 20260502101559 | 36 | 15 | 0.0 | 0.0 | 0.00 | 0.00 | 0.00 | 83 | 1020.9 |
| 20260502070036 | 38 | 15 | 0.0 | 0.0 | 0.00 | 0.00 | 0.00 | 75 | 1020.5 |
| 20260502064535 | 38 | 15 | 0.0 | 0.0 | 0.00 | 0.00 | 0.00 | 73 | 1020.5 |
| 20260502063039 | 39 | 15 | 0.0 | 0.0 | 0.00 | 0.00 | 0.00 | 70 | 1020.5 |
| 20260502061527 | 41 | 15 | 0.0 | 0.0 | 0.00 | 0.00 | 0.00 | 68 | 1020.4 |
| 20260502060026 | 41 | 15 | 0.0 | 0.0 | 0.00 | 0.00 | 0.00 | 67 | 1020.5 |
| 20260502054524 | 41 | 15 | 0.0 | 0.0 | 0.00 | 0.00 | 0.00 | 66 | 1020.5 |
| 20260502053022 | 41 | 15 | 0.0 | 0.0 | 0.00 | 0.00 | 0.00 | 65 | 1020.5 |
| 20260502051523 | 43 | 15 | 0.0 | 1.7 | 0.00 | 0.00 | 0.00 | 62 | 1020.4 |
| 20260502050031 | 44 | 15 | 0.0 | 0.0 | 0.00 | 0.00 | 0.00 | 59 | 1020.2 |
| 20260502044514 | 44 | 16 | 0.0 | 0.0 | 0.00 | 0.00 | 0.00 | 58 | 1020.1 |
| 20260502043013 | 45 | 16 | 0.0 | 0.0 | 0.00 | 0.00 | 0.00 | 57 | 1020.1 |
| 20260502041518 | 45 | 16 | 0.0 | 1.7 | 0.00 | 0.00 | 0.00 | 55 | 1019.9 |
| 20260502040012 | 46 | 16 | 0.0 | 0.0 | 0.00 | 0.00 | 0.00 | 53 | 1019.9 |
| 20260502034512 | 46 | 360 | 0.0 | 0.0 | 0.00 | 0.00 | 0.00 | 53 | 1019.9 |
| 20260502033016 | 47 | 360 | 0.0 | 0.0 | 0.00 | 0.00 | 0.00 | 51 | 1019.8 |
| 20260502031507 | 48 | 360 | 0.0 | 0.0 | 0.00 | 0.00 | 0.00 | 49 | 1019.8 |
| 20260502030020 | 49 | 360 | 0.9 | 1.7 | 0.00 | 0.00 | 0.00 | 48 | 1019.5 |
| 20260502024506 | 49 | 360 | 1.7 | 3.5 | 0.00 | 0.00 | 0.00 | 46 | 1019.3 |
| 20260502023006 | 50 | 351 | 2.6 | 4.3 | 0.00 | 0.00 | 0.00 | 44 | 1019.0 |
| 20260502021506 | 51 | 346 | 3.5 | 6.1 | 0.00 | 0.00 | 0.00 | 43 | 1018.7 |
| 20260502020005 | 52 | 346 | 4.3 | 6.1 | 0.00 | 0.00 | 0.00 | 42 | 1018.4 |
| 20260502014504 | 53 | 327 | 6.1 | 8.7 | 0.00 | 0.00 | 0.00 | 40 | 1017.9 |
| 20260502013004 | 54 | 337 | 5.2 | 9.6 | 0.00 | 0.00 | 0.00 | 40 | 1017.7 |
| 20260502011512 | 55 | 346 | 6.1 | 9.6 | 0.00 | 0.00 | 0.00 | 39 | 1017.6 |
| 20260502010006 | 56 | 341 | 6.1 | 12.2 | 0.00 | 0.00 | 0.00 | 38 | 1017.4 |
| 20260502004509 | 57 | 315 | 7.8 | 13.9 | 0.00 | 0.00 | 0.00 | 36 | 1017.2 |
| 20260502003002 | 58 | 335 | 11.3 | 17.4 | 0.00 | 0.00 | 0.00 | 34 | 1017.1 |
| 20260502001501 | 58 | 341 | 8.7 | 17.4 | 0.00 | 0.00 | 0.00 | 36 | 1016.9 |
| 20260502000002 | 59 | 356 | 8.7 | 14.8 | 0.00 | 0.00 | 0.00 | 37 | 1016.9 |
| 20260501234600 | 59 | 351 | 7.8 | 13.9 | 0.00 | 0.00 | 0.00 | 37 | 1016.8 |
| 20260501233059 | 60 | 271 | 8.7 | 13.0 | 0.00 | 0.00 | 0.00 | 37 | 1016.6 |
| 20260501231557 | 60 | 311 | 10.4 | 14.8 | 0.00 | 0.00 | 0.00 | 38 | 1016.6 |
| 20260501230059 | 60 | 346 | 8.7 | 16.5 | 0.00 | 0.00 | 0.00 | 41 | 1016.5 |
| 20260501224556 | 60 | 331 | 10.4 | 18.2 | 0.00 | 0.00 | 0.00 | 38 | 1016.6 |
| 20260501223104 | 60 | 288 | 7.0 | 13.0 | 0.00 | 0.00 | 0.00 | 40 | 1016.7 |
| 20260501221558 | 60 | 250 | 8.7 | 16.5 | 0.00 | 0.00 | 0.00 | 42 | 1016.7 |
| 20260501214552 | 59 | 279 | 6.1 | 13.9 | 0.00 | 0.00 | 0.00 | 41 | 1016.8 |
| 20260501213055 | 61 | 298 | 7.0 | 17.4 | 0.00 | 0.00 | 0.00 | 40 | 1016.9 |
| 20260501211601 | 61 | 310 | 7.8 | 14.8 | 0.00 | 0.00 | 0.00 | 41 | 1017.2 |
| 20260501210054 | 60 | 335 | 8.7 | 16.5 | 0.00 | 0.00 | 0.00 | 41 | 1017.3 |
| 20260501204547 | 59 | 315 | 9.6 | 19.1 | 0.00 | 0.00 | 0.00 | 42 | 1017.4 |
| 20260501203045 | 60 | 356 | 8.7 | 15.6 | 0.00 | 0.00 | 0.00 | 40 | 1017.5 |
| 20260501201545 | 60 | 279 | 5.2 | 14.8 | 0.00 | 0.00 | 0.00 | 41 | 1017.6 |
| 20260501200045 | 61 | 304 | 12.2 | 19.1 | 0.00 | 0.00 | 0.00 | 39 | 1017.7 |
| 20260501194542 | 61 | 282 | 9.6 | 18.2 | 0.00 | 0.00 | 0.00 | 39 | 1017.7 |
| 20260501193041 | 61 | 285 | 5.2 | 17.4 | 0.00 | 0.00 | 0.00 | 40 | 1017.8 |
| 20260501191540 | 61 | 314 | 8.7 | 20.9 | 0.00 | 0.00 | 0.00 | 40 | 1017.9 |
| 20260501190046 | 61 | 346 | 9.6 | 14.8 | 0.00 | 0.00 | 0.00 | 38 | 1017.8 |
| 20260501184537 | 60 | 307 | 5.2 | 15.6 | 0.00 | 0.00 | 0.00 | 42 | 1017.8 |
| 20260501183036 | 60 | 307 | 7.0 | 17.4 | 0.00 | 0.00 | 0.00 | 40 | 1017.9 |
| 20260501181533 | 60 | 304 | 7.8 | 14.8 | 0.00 | 0.00 | 0.00 | 42 | 1018.1 |
| 20260501180045 | 60 | 312 | 7.8 | 13.9 | 0.00 | 0.00 | 0.00 | 44 | 1018.1 |
| 20260501174537 | 59 | 305 | 5.2 | 15.6 | 0.00 | 0.00 | 0.00 | 43 | 1018.4 |
| 20260501173031 | 59 | 292 | 7.0 | 16.5 | 0.00 | 0.00 | 0.00 | 47 | 1018.4 |
| 20260501171530 | 59 | 297 | 7.0 | 14.8 | 0.00 | 0.00 | 0.00 | 46 | 1018.4 |
| 20260501170037 | 59 | 351 | 7.8 | 15.6 | 0.00 | 0.00 | 0.00 | 45 | 1018.3 |
| 20260501164526 | 58 | 242 | 6.1 | 11.3 | 0.00 | 0.00 | 0.00 | 50 | 1018.2 |
| 20260501163023 | 57 | 311 | 6.1 | 18.2 | 0.00 | 0.00 | 0.00 | 52 | 1018.5 |
| 20260501161530 | 57 | 275 | 7.8 | 16.5 | 0.00 | 0.00 | 0.00 | 53 | 1018.5 |
| 20260501160020 | 56 | 266 | 7.8 | 14.8 | 0.00 | 0.00 | 0.00 | 53 | 1018.4 |
| 20260501154518 | 56 | 253 | 5.2 | 13.9 | 0.00 | 0.00 | 0.00 | 54 | 1018.4 |
| 20260501153015 | 55 | 290 | 7.8 | 12.2 | 0.00 | 0.00 | 0.00 | 58 | 1018.5 |
| 20260501151519 | 55 | 250 | 7.0 | 13.0 | 0.00 | 0.00 | 0.00 | 57 | 1018.5 |